Location: Unspecified
(35.7250°N, 0.0000°E)
Time: 17:01:50
(UTC+00:00)

Vanguard 1 Rocket - Pass Details

Date: 22 June 2019
Orbit: 651 x 4225 km, 34.3° (Epoch: 16 July)

Event Time Altitude Azimuth Distance (km) Brightness Sun altitude
Rises 14:52:06 0° 219° (SW) 8,430 12.7 51.4°
Reaches altitude 10° 14:58:48 10° 213° (SSW) 7,226 12.5 50.0°
Maximum altitude 15:19:27 43° 152° (SSE) 3,779 10.8 45.8°
Drops below altitude 10° 15:31:40 10° 86° (E) 4,447 10.6 43.4°
Sets 15:34:37 0° 79° (E) 5,065 10.8 42.8°
